Dewpoint
70 70 70 70 61 60 55 57 60 59 57 60 57 57 58 61 56 49 68 71 73 73 74 74 75 75 75 75 74 74 74 74 74 74 75 75 74 74 74 74 73 73 73 73 73 72 72 72 72
70 69 70 65 58 53 55 58 57 59 60 60 60 60 60 60 66 67 68 73 74 74 74 74 76 75 74 74 75 74 74 74 75 74 75 74 74 72 73 73 72 73 73 72 72 72 71 71 71
70 70 64 61 57 53 54 57 58 59 60 59 60 62 61 63 66 67 71 73 74 74 74 74 75 74 75 74 75 74 74 74 73 74 74 73 72 72 72 72 72 73 72 71 71 71 70 70 68
69 67 66 58 55 57 57 58 59 59 60 61 61 60 64 67 67 69 72 73 73 73 74 74 74 74 74 74 74 75 74 73 73 74 73 73 73 73 73 72 72 72 72 72 72 72 70 68 68
67 64 57 55 55 57 59 59 59 59 59 60 61 61 63 67 70 71 72 72 72 72 73 72 75 75 75 74 74 74 73 73 73 73 73 73 73 73 72 72 71 71 71 71 72 72 72 71 69
62 63 54 53 55 57 58 59 59 60 60 61 61 61 63 68 69 70 71 71 73 73 74 72 74 75 75 74 74 74 73 72 74 73 72 73 73 72 72 71 71 71 70 71 71 71 72 72 70
59 58 54 54 53 56 57 59 59 60 60 60 61 61 63 67 69 71 71 72 73 73 72 73 72 73 74 72 72 72 72 72 73 72 72 72 72 72 72 72 73 73 72 72 72 73 74 74 70
62 58 53 54 53 53 59 59 60 60 60 61 62 60 62 67 70 70 71 72 72 72 71 72 72 70 73 74 75 74 73 73 72 72 72 72 74 72 72 71 72 74 71 72 72 72 73 74 71
64 54 54 53 54 55 59 58 61 61 60 60 61 62 63 67 69 69 70 70 71 71 69 71 72 70 71 72 73 73 72 72 72 73 74 69 72 72 72 72 74 74 74 73 74 72 72 73 72
58 50 49 55 56 54 57 58 59 59 59 59 61 63 66 68 68 68 67 67 68 68 68 68 71 71 72 73 74 73 72 72 72 73 73 73 71 72 72 73 74 74 74 74 74 70 72 73 73
57 52 51 51 54 56 56 59 59 59 58 59 61 63 65 67 67 67 67 67 67 67 67 66 70 71 72 72 72 71 71 72 73 73 71 70 71 72 72 72 72 73 72 72 72 70 73 72 71
53 54 52 49 55 56 57 59 59 59 58 60 62 64 65 66 66 66 66 67 67 65 64 64 68 70 71 70 70 69 71 71 72 72 70 72 71 71 72 72 72 71 71 72 73 72 71 70 70
53 42 51 50 54 57 59 58 58 58 59 61 63 65 65 65 66 66 66 67 66 64 63 65 67 70 71 70 68 69 70 70 71 72 73 71 69 71 73 73 73 74 72 72 72 72 70 72 70
32 41 47 51 57 57 56 58 58 59 60 61 63 63 64 65 66 66 66 67 66 64 64 65 67 69 70 70 69 70 70 71 70 72 68 68 69 72 73 73 73 73 73 72 74 73 71 71 70
30 46 53 54 55 57 58 56 57 59 59 61 62 63 64 65 65 65 66 66 66 65 66 65 66 68 69 70 70 70 71 70 69 72 71 67 72 72 73 73 74 72 73 72 73 72 72 71 68
41 43 45 50 54 55 53 51 58 58 59 61 62 63 63 63 64 64 63 66 67 66 66 66 66 68 69 70 70 70 71 71 70 72 73 73 71 72 73 73 73 73 73 72 71 72 70 68 65
31 39 41 49 52 52 50 50 58 58 59 60 61 62 62 62 63 63 61 62 66 66 66 66 68 69 70 70 69 72 72 71 70 72 72 72 71 73 74 73 73 72 72 71 70 68 69 66 63
26 31 32 42 46 50 48 47 58 58 59 60 61 61 61 61 61 61 61 60 63 66 66 67 70 70 70 71 71 72 69 70 72 72 72 72 72 74 74 74 74 72 72 72 70 66 64 65 64
23 26 27 34 47 46 45 46 58 58 58 59 60 60 59 60 61 61 61 61 62 65 66 68 69 69 69 70 70 70 68 68 70 72 72 71 71 73 73 73 73 73 72 71 71 70 64 61 62
24 28 26 35 45 45 41 41 56 58 58 58 59 59 59 59 59 59 61 63 63 64 65 68 69 69 69 69 70 70 69 69 70 71 71 71 71 72 73 73 73 73 72 71 69 69 66 61 61
23 26 29 30 41 42 47 42 45 57 58 58 58 59 59 58 58 58 60 62 63 64 65 67 68 68 69 69 70 71 69 69 69 69 69 70 71 71 73 73 73 73 72 70 69 67 65 60 60
18 27 32 35 38 31 42 34 40 48 56 57 56 57 58 58 58 58 60 62 62 63 65 66 68 69 69 69 70 70 68 67 68 69 69 69 70 70 72 73 74 74 72 71 69 67 64 61 60
17 20 24 31 36 39 36 36 37 47 51 55 56 56 57 58 58 58 59 61 62 63 64 66 68 69 70 69 69 69 68 67 67 67 68 68 70 71 71 73 74 74 73 71 68 64 62 61 59
18 20 18 24 38 33 32 34 33 41 45 50 55 57 57 57 57 58 60 61 62 62 63 66 68 69 69 69 69 70 69 68 68 69 69 68 69 70 71 72 73 74 73 71 67 65 61 60 59
15 13 12 13 18 22 25 35 30 35 38 46 52 57 57 58 57 57 60 61 61 61 62 66 68 68 69 69 69 69 69 69 69 69 69 69 68 70 71 72 73 74 73 71 68 66 62 59 59
13 13 13 10 13 17 25 21 23 31 34 41 51 55 58 58 57 57 59 61 61 61 61 65 67 68 69 69 69 70 70 69 68 69 69 69 68 69 72 72 73 74 73 71 68 66 62 60 59
12 11 13 10 16 12 13 22 29 31 43 54 52 53 57 58 57 57 59 60 61 60 61 64 67 68 68 69 69 70 70 70 70 69 69 70 71 70 74 73 73 74 73 72 69 65 64 61 59
12 14 11 12 9 11 14 27 27 37 41 55 53 54 56 58 58 57 58 60 61 60 61 63 66 67 68 69 69 70 70 71 71 71 70 70 71 71 73 73 74 74 73 72 69 66 64 62 59
12 12 13 13 13 11 12 15 40 37 38 52 54 55 56 58 58 58 57 59 61 61 61 62 65 67 68 69 69 70 69 70 70 70 70 71 71 71 71 72 73 73 72 72 69 67 63 62 61
13 11 11 11 12 17 16 13 20 37 41 52 54 56 56 57 58 58 59 59 61 62 62 61 64 67 68 69 69 69 69 69 70 70 70 70 70 70 71 71 72 73 72 71 70 67 64 61 60
Lifted_Index
-0 -0 -1 -1 -1 -1 -2 -2 -1 -1 -0 0 0 0 0 0 1 1 -1 -2 -3 -3 -3 -4 -4 -5 -5 -5 -5 -6 -6 -7 -7 -7 -7 -7 -7 -7 -7 -6 -6 -6 -6 -6 -5 -5 -5 -5 -5
-0 -0 -0 -1 -1 -1 -1 -1 -1 -1 -0 0 0 0 -0 -0 -0 -1 -1 -2 -3 -3 -3 -4 -4 -5 -5 -5 -6 -6 -6 -6 -7 -7 -7 -7 -7 -6 -6 -6 -6 -6 -6 -5 -5 -5 -5 -5 -5
-0 -1 -1 -1 -1 -1 -1 -1 -1 -1 -0 -0 -0 -0 -1 -1 -1 -2 -2 -3 -3 -3 -4 -4 -5 -5 -5 -5 -6 -6 -6 -6 -6 -6 -6 -6 -6 -6 -6 -6 -6 -6 -6 -5 -5 -5 -4 -4 -4
-1 -1 -1 -1 -1 -1 -1 -1 -1 -1 -1 -1 -1 -0 -1 -1 -2 -2 -3 -3 -3 -3 -4 -4 -4 -5 -5 -5 -6 -6 -6 -6 -6 -6 -6 -5 -5 -6 -6 -6 -6 -6 -5 -5 -5 -5 -4 -4 -3
-0 -0 -0 -1 -1 -1 -1 -1 -1 -1 -1 -1 -1 -1 -1 -2 -2 -3 -3 -3 -3 -3 -4 -4 -5 -5 -5 -5 -5 -5 -5 -5 -6 -6 -6 -5 -6 -6 -6 -6 -6 -6 -5 -5 -4 -4 -4 -4 -3
-0 -0 -0 -0 -1 -1 -1 -1 -1 -2 -2 -1 -1 -1 -1 -2 -2 -3 -3 -3 -3 -4 -4 -4 -4 -5 -5 -5 -5 -5 -5 -5 -6 -6 -6 -6 -6 -6 -6 -6 -6 -6 -5 -5 -4 -4 -5 -4 -4
-0 -0 0 -0 -1 -1 -1 -1 -1 -1 -2 -2 -1 -1 -1 -2 -2 -2 -2 -3 -3 -3 -3 -4 -4 -4 -5 -4 -5 -5 -5 -5 -5 -5 -5 -6 -6 -6 -6 -5 -6 -6 -6 -5 -5 -5 -5 -5 -4
-0 -0 0 -0 -1 -1 -1 -1 -1 -2 -2 -2 -1 -1 -1 -2 -2 -2 -2 -3 -3 -3 -3 -3 -3 -3 -4 -5 -5 -5 -5 -5 -5 -5 -5 -5 -5 -5 -5 -5 -6 -6 -6 -6 -5 -5 -5 -5 -4
-1 -1 -0 -1 -1 -1 -1 -2 -2 -2 -2 -1 -1 -1 -1 -2 -2 -2 -2 -2 -2 -2 -2 -3 -3 -3 -4 -5 -5 -5 -5 -5 -5 -5 -4 -4 -4 -4 -5 -5 -6 -7 -6 -6 -5 -5 -5 -5 -4
-1 -1 -1 -1 -1 -1 -2 -2 -2 -2 -2 -1 -1 -0 -1 -2 -2 -1 -1 -1 -1 -1 -1 -2 -2 -2 -3 -4 -4 -4 -4 -4 -4 -4 -4 -3 -3 -4 -4 -5 -6 -6 -6 -5 -5 -4 -4 -4 -4
-1 -1 -1 -1 -2 -2 -2 -2 -2 -2 -2 -1 -1 -1 -1 -2 -2 -1 -1 -1 -1 -0 -0 -0 -1 -2 -3 -3 -3 -3 -4 -4 -4 -4 -3 -3 -3 -4 -4 -5 -5 -5 -5 -4 -4 -3 -3 -3 -3
0 0 -0 -1 -1 -2 -2 -2 -3 -2 -2 -1 -1 -1 -1 -2 -2 -1 -1 -0 -0 0 1 0 -1 -2 -3 -3 -3 -3 -3 -4 -4 -4 -3 -3 -3 -4 -4 -4 -4 -4 -4 -4 -3 -3 -3 -2 -2
1 1 0 -0 -1 -2 -3 -3 -3 -3 -2 -2 -1 -1 -1 -2 -2 -2 -1 -1 0 1 1 0 -1 -2 -2 -2 -2 -3 -3 -4 -4 -4 -3 -3 -3 -4 -4 -4 -4 -4 -4 -4 -3 -3 -3 -2 -2
2 1 -0 -1 -1 -2 -3 -3 -2 -2 -2 -2 -2 -2 -2 -2 -2 -2 -2 -1 -0 1 1 -0 -1 -1 -2 -2 -2 -3 -3 -4 -4 -3 -3 -3 -4 -4 -4 -4 -4 -4 -4 -4 -3 -3 -2 -2 -2
1 0 -1 -2 -2 -3 -2 -2 -2 -2 -2 -2 -2 -1 -1 -2 -2 -2 -2 -1 -1 0 1 0 -0 -1 -2 -2 -2 -3 -3 -3 -4 -4 -3 -3 -4 -4 -5 -5 -4 -4 -4 -4 -3 -3 -2 -2 -2
0 -0 -1 -2 -3 -3 -2 -1 -1 -2 -2 -2 -2 -1 -1 -1 -2 -2 -2 -2 -1 -0 0 0 0 -1 -2 -2 -2 -3 -3 -3 -4 -4 -4 -4 -4 -4 -5 -5 -5 -4 -4 -4 -3 -3 -2 -1 -1
0 -0 -1 -2 -2 -2 -2 -1 -1 -2 -2 -2 -2 -2 -1 -1 -1 -2 -2 -1 -1 -0 -0 0 0 -0 -1 -2 -2 -3 -3 -3 -4 -4 -4 -3 -4 -5 -5 -5 -5 -4 -4 -3 -3 -2 -1 -0 -0
0 0 0 -1 -1 -1 -1 -1 -1 -2 -2 -2 -2 -2 -1 -1 -1 -1 -1 -0 -0 -0 -0 -0 -0 -0 -1 -1 -2 -2 -3 -3 -3 -4 -4 -3 -4 -4 -5 -5 -5 -4 -4 -3 -2 -1 0 0 -1
1 1 1 1 0 -0 -1 -1 -1 -2 -2 -2 -2 -1 -1 -1 -1 -1 -0 0 0 0 -0 -0 -0 -1 -1 -1 -2 -2 -2 -3 -3 -4 -4 -3 -3 -4 -5 -5 -5 -5 -4 -3 -2 -1 1 1 0
1 1 1 1 1 0 0 0 -1 -2 -2 -2 -2 -1 -1 -1 -0 -0 0 0 0 0 0 -0 -0 -0 -1 -1 -1 -2 -2 -2 -3 -4 -4 -3 -3 -4 -5 -5 -5 -5 -5 -3 -2 -0 1 2 2
1 1 1 1 1 1 1 1 0 -1 -2 -2 -2 -2 -2 -1 -0 0 1 1 1 1 1 0 -0 -0 -0 -0 -1 -1 -2 -2 -3 -3 -3 -3 -3 -4 -5 -6 -6 -6 -5 -4 -3 -0 2 4 5
2 1 1 1 2 2 1 1 1 0 -1 -2 -2 -3 -2 -1 -0 0 1 1 1 1 1 1 0 0 0 0 -1 -1 -1 -2 -3 -3 -3 -3 -3 -4 -5 -6 -6 -6 -6 -5 -4 -1 3 5 6
2 1 1 1 2 2 2 2 1 1 0 -1 -2 -3 -3 -2 -1 -0 0 1 1 1 1 1 0 0 0 0 -0 -1 -1 -2 -2 -3 -3 -3 -3 -4 -4 -5 -6 -7 -7 -6 -4 -2 2 5 6
2 2 1 1 2 2 2 2 2 1 1 0 -1 -2 -2 -2 -2 -1 0 1 1 1 1 1 1 1 0 0 0 -1 -1 -2 -2 -3 -3 -3 -3 -4 -4 -5 -6 -7 -7 -6 -5 -3 0 4 6
2 2 1 1 1 2 2 2 2 2 2 1 0 -1 -1 -1 -1 -1 -0 1 1 1 1 1 1 0 0 0 0 0 -1 -1 -2 -2 -3 -4 -3 -4 -4 -5 -6 -7 -7 -6 -5 -4 -2 1 4
2 2 2 1 1 2 2 2 2 2 2 1 0 -1 -1 -1 -1 -1 -1 0 1 1 1 1 1 0 0 0 0 0 -0 -1 -2 -2 -3 -3 -4 -4 -5 -6 -6 -6 -7 -6 -5 -4 -3 -1 0
3 3 2 2 1 1 2 2 2 1 1 -0 -1 -1 -1 -1 -1 -1 -1 -0 1 1 1 1 1 0 0 -0 0 0 -0 -1 -1 -2 -3 -3 -4 -4 -5 -6 -6 -6 -6 -6 -6 -5 -3 -2 -2
4 3 3 2 1 1 1 2 1 1 1 -1 -2 -2 -1 -1 -1 -1 -1 -1 0 1 1 1 1 1 0 0 0 0 -0 -1 -1 -2 -2 -3 -3 -4 -5 -6 -6 -6 -6 -6 -6 -5 -4 -3 -3
4 4 3 3 2 1 1 1 2 2 1 0 -1 -2 -2 -2 -1 -1 -1 -1 -0 0 1 1 1 1 1 0 0 0 -0 -0 -1 -1 -2 -2 -3 -4 -4 -5 -6 -6 -6 -6 -6 -5 -5 -4 -3
4 4 4 3 2 2 2 2 2 2 1 1 -1 -2 -3 -2 -2 -1 -1 -1 -1 -0 0 1 1 1 1 0 0 0 0 0 -0 -1 -2 -2 -3 -3 -4 -4 -5 -5 -6 -6 -6 -6 -5 -4 -4